Location: Forcarei
(42.5879°N, 8.3520°W)
Time: 09:14:47
(UTC+01:00)

ISS - Visible Passes

Search period start: 24 February 2018 00:00
Search period end: 06 March 2018 00:00
Orbit: 402 x 407 km, 51.6° (Epoch: 24 February)

Date Brightness Start Highest point End Pass type
(mag) Time Alt. Az. Time Alt. Az. Time Alt. Az.
25 Feb -0.7 07:13:45 10° SSE 07:15:20 13° SE 07:16:56 10° ESE visible
27 Feb -2.0 07:04:11 10° SSW 07:07:05 30° SE 07:10:00 10° ENE visible
28 Feb -1.3 06:13:51 14° SSE 06:15:01 16° SE 06:17:09 10° E visible
01 Mar -3.7 06:56:52 21° SW 06:58:55 72° SE 07:02:11 10° ENE visible
02 Mar -2.5 06:07:02 36° SE 06:07:02 36° SE 06:09:47 10° ENE visible
03 Mar -0.2 05:17:03 10° E 05:17:03 10° E 05:17:05 10° E visible
03 Mar -3.5 06:49:44 33° W 06:50:51 52° NNW 06:54:04 10° NE visible
04 Mar -2.4 05:59:38 38° ENE 05:59:38 38° ENE 06:01:49 10° ENE visible
04 Mar -2.2 07:32:41 10° WNW 07:35:20 22° NNW 07:38:00 10° NE visible
05 Mar -2.6 06:42:07 26° NW 06:42:51 29° NNW 06:45:47 10° NE visible
